This demonstration page uses our WeatherBlox Daily Observations layout. Learn more.

Left ArrowRight Arrow

39.01783, -85.05884

Hourly Observations for July 11, 2020

Temp ( °F °C ) Dew Point ( °F °C ) Humidity (%) Winds ( mph kmh ) Pressure ( in mb ) Visibility ( mi km ) Precip ( " mm )
12:52 am 00:52 Partly Cloudy 72 22.2 64 17.8 76 76 W 8 13 29.85 1011 10 16 0.00 0.00
1:52 am 01:52 Mostly Cloudy 73 22.8 64 17.8 74 74 W 8 13 29.85 1011 10 16 0.00 0.00
2:52 am 02:52 Mostly Clear 74 23.3 64 17.8 71 71 NW 9 15 29.85 1011 10 16 0.00 0.00
3:52 am 03:52 Mostly Clear 72 22.2 64 17.8 76 76 NW 8 13 29.86 1011 10 16 0.00 0.00
4:52 am 04:52 Mostly Clear 69 20.6 63 17.2 81 81 WNW 7 11 29.85 1011 10 16 0.00 0.00
5:52 am 05:52 Mostly Clear 67 19.4 63 17.2 87 87 WSW 3 6 29.88 1012 10 16 0.00 0.00
6:52 am 06:52 Mostly Sunny 66 18.9 63 17.2 90 90 Calm 29.87 1012 10 16 0.00 0.00
7:52 am 07:52 Mostly Sunny 70 21.1 65 18.3 84 84 W 7 11 29.88 1012 10 16 0.00 0.00
8:52 am 08:52 Mostly Sunny 75 23.9 64 17.8 69 69 WNW 12 19 29.90 1012 10 16 0.00 0.00
9:52 am 09:52 Sunny 78 25.6 65 18.3 64 64 WNW 10 17 29.91 1013 10 16 0.00 0.00
10:52 am 10:52 Mostly Sunny 81 27.2 63 17.2 54 54 WNW 13 20 29.91 1013 10 16 0.00 0.00
11:52 am 11:52 Mostly Sunny 83 28.3 61 16.1 48 48 WNW 12 19 29.90 1013 10 16 0.00 0.00
12:52 pm 12:52 Partly Cloudy 82 27.8 61 16.1 49 49 W 14 22 29.90 1013 10 16 0.00 0.00
1:52 pm 13:52 Partly Cloudy 84 28.9 61 16.1 46 46 WNW 14 22 29.90 1012 10 16 0.00 0.00
2:52 pm 14:52 Partly Cloudy 86 30 61 16.1 43 43 W 10 17 29.89 1012 10 16 0.00 0.00
3:52 pm 15:52 Partly Cloudy 87 30.6 62 16.7 43 43 NW 13 20 29.88 1012 10 16 0.00 0.00
4:52 pm 16:52 Partly Cloudy 86 30 62 16.7 45 45 W 14 22 29.86 1011 10 16 0.00 0.00
5:52 pm 17:52 Partly Cloudy 86 30 61 16.1 43 43 W 10 17 29.85 1011 10 16 0.00 0.00
6:52 pm 18:52 Mostly Cloudy 83 28.3 63 17.2 51 51 WNW 9 15 29.85 1011 10 16 0.00 0.00
7:01 pm 19:01 Mostly Cloudy with Thunderstorms 84 28.9 62 16.7 48 48 NNW 24 39 29.85 1011 10 16 0.00 0.00
7:25 pm 19:25 Cloudy with Thunderstorms 68 20 63 17.2 84 84 WNW 6 9 29.89 1012 6 10 0.07 1.78
7:42 pm 19:42 Cloudy with Nearby Thunderstorms 67 19.4 64 17.8 91 91 S 8 13 29.88 1012 9 14 0.09 2.29
7:52 pm 19:52 Cloudy with Light Rain 67 19.4 64 17.8 91 91 S 9 15 29.87 1012 7 11 0.10 2.54
8:52 pm 20:52 Cloudy 67 19.4 64 17.8 91 91 SSW 10 17 29.86 1011 10 16 0.00 0.00
9:52 pm 21:52 Cloudy 67 19.4 64 17.8 91 91 SW 5 7 29.85 1011 10 16 0.00 0.00
10:52 pm 22:52 Cloudy 67 19.4 64 17.8 91 91 SW 5 7 29.86 1011 10 16 0.00 0.00
11:52 pm 23:52 Cloudy 68 20 65 18.3 90 90 SW 9 15 29.84 1010 10 16 0.00 0.00

Powered by AerisWeather